Wind_Speed
51 49 47 46 44 42 40 39 38 36 35 33 32 31 29 28 28 27 26 26 26 26 26 26 26 27 27 28 29 30 31 32 33 33 33 35 36 37 38 39 40 41 42
54 52 50 48 46 44 42 41 39 38 36 35 34 32 31 30 29 29 28 28 27 27 27 27 28 28 28 29 30 31 33 33 33 34 34 35 37 38 39 40 41 42 43
55 54 53 51 49 46 44 43 41 40 39 37 35 34 33 32 31 30 29 29 29 29 29 29 29 29 30 31 32 33 34 34 34 34 35 36 38 39 40 41 42 43 44
58 56 55 53 51 48 46 45 44 42 40 38 37 35 34 33 32 32 31 30 30 30 30 29 30 30 32 33 34 34 35 34 35 35 36 37 39 40 42 42 43 44 45
60 58 56 55 53 51 49 47 46 44 42 40 38 37 36 34 33 33 32 31 31 31 31 31 31 32 33 34 35 35 35 35 36 37 38 39 40 42 43 43 44 45 47
63 61 59 57 55 53 51 49 48 46 44 42 40 38 37 36 34 33 32 32 32 32 32 32 32 33 34 34 35 35 35 36 37 38 39 41 42 43 44 45 46 46 47
64 63 60 59 57 55 52 50 50 47 45 44 42 40 38 37 35 34 34 33 33 32 33 33 33 34 34 34 34 35 36 37 38 39 40 42 43 44 44 45 46 47 47
66 65 63 60 58 56 54 51 51 49 46 44 43 41 39 38 36 35 35 34 33 33 33 33 34 34 34 34 35 35 36 37 38 40 41 43 44 44 45 46 46 47 48
68 67 65 61 59 57 56 53 52 50 48 46 44 42 40 38 37 36 35 34 34 34 34 34 34 34 34 34 35 36 37 38 39 41 42 43 44 44 45 46 47 47 48
69 68 66 64 60 58 56 53 52 50 49 46 44 42 41 39 38 36 36 36 35 34 34 35 34 34 34 35 36 37 37 38 40 41 43 44 44 44 45 46 47 48 49
68 68 66 65 62 60 57 54 53 52 50 47 44 43 41 39 38 37 36 36 35 35 35 35 35 34 35 36 36 37 38 39 40 42 43 43 44 44 45 46 47 48 49
67 67 66 64 63 61 58 55 53 52 50 47 44 43 41 40 38 38 37 36 36 35 35 35 35 35 35 36 36 37 38 39 40 42 42 43 43 44 45 46 47 48 49
63 64 65 64 62 60 58 55 52 51 50 47 45 43 41 41 39 38 37 37 36 36 36 36 36 36 36 36 36 37 38 39 40 41 42 43 43 44 45 46 47 49 50
61 63 62 63 60 58 57 54 52 51 49 47 45 43 41 41 39 38 37 36 36 36 36 36 36 36 35 36 37 37 38 39 40 41 42 43 43 44 45 46 48 49 51
58 60 60 60 61 59 57 53 50 49 49 47 45 43 41 41 39 38 36 36 36 36 35 35 35 35 36 36 36 37 38 39 40 41 42 42 43 44 45 47 49 51 53
56 59 59 58 59 58 56 52 50 49 48 46 44 42 40 40 39 37 36 36 36 36 35 35 35 35 35 36 36 37 38 39 40 41 42 42 43 45 46 49 51 52 55
53 56 57 56 56 55 52 50 50 48 47 45 43 42 39 39 39 37 36 36 36 35 35 35 35 35 35 35 36 38 39 39 40 40 41 42 44 46 48 50 52 54 56
51 53 55 57 56 54 51 48 49 48 46 44 42 41 40 39 38 37 36 35 35 35 35 35 34 34 34 35 37 37 37 38 39 40 42 43 45 47 49 51 53 55 55
49 51 53 55 56 53 50 49 48 46 45 44 41 39 39 39 38 36 36 35 34 34 34 33 33 33 34 35 36 36 37 38 39 41 43 44 46 48 50 52 53 54 54
45 48 50 51 51 52 51 47 46 45 42 42 39 38 38 37 37 36 35 35 34 33 33 33 33 33 34 35 35 36 37 38 40 42 43 45 47 49 51 52 53 52 53
44 46 48 49 49 50 49 46 45 45 43 41 40 38 38 37 37 36 35 35 34 33 32 32 32 33 33 34 35 36 37 38 40 42 43 45 47 49 51 51 51 51 52
44 46 47 47 48 50 49 46 43 43 41 39 38 36 36 36 35 35 36 35 34 32 32 32 31 32 33 34 35 35 37 38 40 41 43 45 47 49 50 50 50 51 52
45 44 45 47 45 46 47 45 43 40 39 38 37 37 36 36 35 35 35 33 32 32 32 31 31 32 33 33 34 35 37 38 40 41 44 45 47 49 49 49 50 50 51
43 43 45 46 45 44 44 43 41 40 38 37 36 35 35 35 34 34 33 32 31 31 31 30 31 32 33 33 34 35 37 38 40 42 44 45 47 48 49 49 49 49 50
42 43 44 44 43 42 41 39 39 38 37 36 35 35 35 35 34 33 33 32 31 31 31 31 31 32 32 32 34 35 37 39 40 42 44 45 46 46 47 47 48 48 49
43 44 45 44 43 41 40 38 37 36 36 36 35 34 35 34 32 32 31 31 30 30 31 30 30 30 31 32 34 35 37 39 41 42 43 44 44 45 45 45 46 47 47
Wind_Direction
240 240 240 241 242 243 243 244 244 245 247 249 250 252 255 258 260 264 267 271 274 277 280 284 287 289 290 293 296 298 300 302 303 304 305 306 308 310 310 311 312 313 313
238 238 238 239 240 241 243 244 244 244 246 248 249 251 254 257 259 263 267 270 273 276 279 282 286 288 290 293 295 297 299 301 302 303 305 306 308 309 310 311 311 312 313
236 236 237 237 238 239 241 242 243 244 245 247 249 251 253 256 259 262 266 269 272 276 279 282 285 287 289 291 294 296 299 301 301 303 305 306 308 309 310 311 311 312 312
234 234 235 236 236 237 238 241 243 244 244 246 248 250 252 255 258 261 265 268 271 275 278 281 284 287 289 291 294 296 298 300 301 303 304 306 308 309 310 310 311 312 312
232 232 233 234 235 235 237 239 241 242 243 245 247 249 251 254 258 260 264 267 271 274 277 280 283 286 289 291 294 295 297 299 301 302 304 306 307 309 310 310 311 311 312
230 231 231 232 233 234 235 237 239 241 242 244 246 248 250 253 256 259 263 266 270 273 276 280 283 286 289 291 293 295 297 299 300 302 304 305 307 308 309 310 311 311 312
228 230 230 230 232 232 234 237 239 240 242 243 245 247 249 252 255 259 263 266 270 273 276 280 283 286 288 291 293 295 297 298 300 302 304 305 307 308 308 309 310 311 312
226 227 228 229 230 231 232 235 238 239 242 243 244 246 249 252 255 258 262 265 269 272 276 280 283 285 288 291 293 295 296 298 300 302 304 306 307 307 308 309 310 311 311
225 226 227 227 229 231 232 233 236 240 241 242 244 246 248 251 255 257 261 265 268 271 275 279 281 284 288 291 293 295 296 298 301 303 305 306 306 307 309 309 310 311 312
223 225 225 226 227 230 231 232 235 237 239 241 243 245 248 250 253 256 260 264 267 270 274 277 281 284 288 291 293 295 296 299 301 303 305 306 307 308 309 309 310 311 312
222 223 223 224 226 228 230 232 234 236 239 241 243 245 246 248 251 255 260 263 267 270 273 276 280 284 288 291 293 294 296 298 301 303 305 306 308 309 309 310 311 311 312
221 221 222 223 225 227 227 230 233 236 238 240 242 243 246 247 250 254 259 263 266 270 273 275 279 283 287 290 292 294 296 298 301 303 305 307 308 310 310 311 311 312 313
221 220 221 222 224 226 227 230 231 234 238 239 240 242 245 247 249 253 258 261 265 269 272 276 279 283 287 290 293 295 297 299 301 304 306 307 309 310 311 312 312 313 314
220 219 221 221 222 224 227 229 231 234 236 237 239 241 244 246 249 253 257 261 265 268 272 275 279 283 286 290 293 295 298 300 303 305 306 308 309 310 312 312 313 314 315
219 218 220 220 222 223 225 228 229 232 233 235 237 239 243 246 248 252 256 260 264 267 270 274 278 282 286 290 292 295 298 301 304 305 307 308 310 311 312 313 314 315 315
219 218 218 220 221 222 224 227 229 230 233 235 237 239 243 247 248 251 256 260 263 267 269 274 278 282 286 289 292 295 299 301 303 305 307 309 310 311 312 314 315 315 315
219 218 220 222 221 222 224 227 226 230 233 234 237 239 243 247 248 251 255 259 262 266 269 273 277 282 286 290 293 296 299 302 304 306 308 309 311 312 313 314 315 315 316
219 218 219 220 220 222 224 226 227 229 232 235 236 238 243 246 248 251 254 258 261 265 269 273 278 282 286 290 294 297 300 302 304 306 308 310 312 313 314 315 315 316 318
219 218 219 219 220 222 224 225 226 228 231 233 235 239 242 245 247 250 253 255 260 265 269 273 278 282 287 291 294 297 300 303 305 307 309 311 313 314 315 315 316 318 319
217 218 219 219 220 221 221 223 226 227 229 232 235 238 241 243 245 249 251 254 259 264 269 274 279 283 287 291 294 297 300 303 306 308 310 312 314 315 315 316 317 318 319
217 218 218 219 220 220 221 224 226 228 230 232 234 236 238 241 243 247 250 253 258 264 270 274 279 283 287 291 294 297 300 304 306 308 310 312 314 315 316 317 318 319 320
220 218 217 217 218 220 220 222 225 227 227 229 232 235 237 239 242 245 249 253 258 263 269 274 279 284 287 291 293 297 301 304 306 309 311 313 315 316 317 318 318 319 320
219 218 219 218 218 218 219 220 222 224 226 229 232 235 236 239 241 246 249 252 257 263 269 272 279 284 288 291 294 299 302 305 307 310 312 314 315 316 317 317 318 319 320
217 215 217 217 218 218 218 220 222 224 227 229 232 234 236 239 241 246 250 254 257 263 267 272 279 284 288 291 294 299 303 305 308 310 313 315 316 316 317 317 318 319 321
215 215 214 215 214 215 217 220 222 225 227 229 231 232 235 239 243 247 251 254 258 263 268 273 278 283 288 291 296 300 303 306 308 310 313 315 316 317 317 318 319 320 322
215 215 213 212 214 216 217 219 221 223 226 228 229 231 234 239 243 247 250 254 259 265 269 273 279 285 289 292 297 300 303 306 308 310 313 315 316 318 319 320 321 322 323
Height
5789 5793 5798 5802 5806 5810 5813 5816 5819 5822 5824 5826 5828 5830 5831 5832 5832 5833 5833 5832 5832 5831 5830 5829 5828 5826 5824 5822 5820 5817 5815 5812 5809 5805 5802 5798 5795 5791 5786 5782 5777 5773 5768
5778 5783 5788 5792 5797 5802 5805 5808 5812 5814 5817 5820 5822 5823 5825 5826 5826 5827 5827 5827 5827 5826 5825 5824 5823 5821 5819 5817 5815 5812 5809 5806 5803 5800 5796 5792 5789 5784 5780 5775 5771 5766 5761
5767 5772 5777 5783 5788 5793 5797 5800 5803 5807 5810 5813 5815 5817 5818 5820 5820 5821 5821 5821 5821 5820 5820 5818 5817 5816 5814 5812 5809 5806 5803 5800 5797 5794 5790 5786 5782 5778 5773 5768 5763 5758 5753
5754 5761 5767 5772 5778 5783 5788 5791 5795 5799 5802 5805 5808 5810 5812 5813 5814 5815 5815 5815 5815 5815 5814 5813 5811 5810 5808 5806 5803 5800 5797 5794 5791 5788 5784 5780 5776 5771 5766 5761 5756 5751 5745
5742 5748 5755 5761 5767 5773 5778 5782 5786 5790 5794 5797 5800 5803 5805 5806 5807 5808 5809 5809 5809 5808 5808 5807 5805 5804 5802 5799 5797 5794 5791 5788 5785 5781 5777 5773 5769 5764 5759 5754 5748 5743 5737
5728 5735 5743 5750 5756 5762 5768 5773 5777 5781 5785 5789 5792 5795 5798 5799 5800 5801 5802 5802 5803 5802 5801 5800 5799 5797 5795 5793 5790 5787 5785 5781 5778 5774 5770 5766 5762 5757 5751 5746 5740 5734 5728
5714 5722 5730 5737 5744 5751 5757 5763 5767 5772 5776 5780 5784 5787 5789 5792 5793 5794 5795 5796 5796 5795 5795 5794 5792 5791 5788 5786 5783 5781 5778 5775 5771 5767 5763 5759 5754 5749 5743 5738 5732 5726 5720
5699 5708 5717 5725 5732 5739 5746 5752 5758 5762 5767 5771 5775 5778 5781 5784 5786 5787 5788 5789 5789 5789 5788 5787 5786 5784 5782 5779 5777 5774 5771 5767 5764 5760 5755 5751 5746 5741 5735 5730 5724 5718 5711
5685 5694 5704 5713 5721 5729 5736 5742 5748 5754 5758 5763 5767 5771 5774 5777 5779 5780 5781 5782 5782 5781 5781 5780 5778 5777 5775 5772 5770 5767 5764 5760 5756 5752 5748 5743 5738 5732 5727 5721 5715 5709 5703
5670 5681 5691 5700 5709 5717 5725 5731 5738 5744 5748 5753 5758 5763 5767 5769 5771 5772 5774 5774 5774 5774 5773 5773 5771 5770 5768 5765 5762 5759 5756 5753 5749 5745 5740 5735 5730 5724 5719 5713 5707 5700 5694
5656 5667 5678 5687 5697 5705 5714 5721 5728 5733 5739 5744 5749 5754 5757 5760 5762 5764 5766 5767 5767 5767 5766 5765 5764 5762 5760 5758 5755 5752 5749 5745 5741 5737 5732 5727 5722 5716 5710 5704 5698 5691 5684
5644 5654 5665 5675 5685 5693 5702 5710 5718 5724 5730 5735 5740 5745 5748 5751 5754 5756 5758 5759 5759 5759 5758 5757 5756 5755 5753 5750 5748 5744 5741 5737 5733 5729 5724 5719 5713 5708 5702 5695 5689 5682 5675
5632 5643 5652 5663 5673 5681 5691 5700 5707 5713 5720 5725 5731 5736 5739 5743 5745 5747 5749 5750 5751 5751 5751 5750 5749 5747 5745 5743 5740 5737 5733 5730 5725 5721 5716 5711 5705 5699 5693 5687 5680 5673 5666
5622 5632 5642 5652 5661 5671 5681 5690 5697 5704 5710 5716 5721 5726 5730 5733 5736 5739 5741 5742 5743 5743 5743 5742 5741 5740 5738 5735 5732 5729 5726 5722 5717 5713 5708 5702 5697 5691 5684 5678 5671 5664 5656
5612 5622 5632 5641 5652 5661 5671 5679 5687 5694 5701 5706 5712 5717 5721 5724 5727 5730 5732 5734 5735 5736 5736 5734 5733 5732 5730 5727 5725 5721 5718 5714 5709 5704 5699 5694 5688 5682 5676 5669 5662 5654 5646
5602 5612 5622 5632 5641 5651 5660 5670 5678 5685 5691 5697 5703 5708 5712 5716 5719 5721 5724 5725 5726 5727 5727 5726 5725 5724 5722 5720 5717 5714 5710 5706 5701 5696 5691 5686 5680 5674 5667 5660 5652 5644 5636
5594 5604 5614 5622 5632 5643 5651 5660 5669 5675 5682 5688 5694 5699 5703 5707 5710 5713 5715 5717 5718 5719 5719 5718 5717 5716 5714 5712 5709 5706 5702 5698 5693 5688 5683 5678 5672 5665 5658 5651 5643 5634 5625
5587 5596 5605 5614 5624 5633 5642 5651 5659 5667 5673 5679 5685 5690 5694 5698 5701 5705 5707 5708 5709 5710 5711 5711 5710 5708 5706 5704 5701 5698 5694 5690 5685 5681 5675 5669 5663 5656 5649 5641 5633 5624 5615
5579 5588 5596 5606 5616 5624 5633 5642 5650 5657 5664 5670 5676 5681 5685 5689 5693 5696 5698 5700 5701 5702 5702 5703 5702 5700 5698 5696 5693 5690 5686 5682 5677 5673 5667 5661 5654 5647 5639 5631 5623 5614 5605
5571 5580 5588 5598 5607 5615 5624 5633 5641 5648 5655 5661 5667 5672 5676 5681 5684 5687 5689 5691 5693 5694 5695 5695 5694 5692 5691 5688 5685 5682 5678 5674 5669 5664 5658 5652 5645 5638 5630 5622 5614 5605 5595
5564 5572 5580 5590 5599 5607 5616 5624 5632 5640 5646 5652 5658 5663 5667 5672 5675 5678 5681 5683 5685 5686 5687 5687 5686 5685 5683 5680 5678 5674 5671 5666 5661 5656 5650 5643 5636 5629 5620 5612 5603 5595 5586
5556 5565 5573 5582 5591 5599 5608 5617 5624 5631 5637 5643 5650 5654 5659 5663 5666 5670 5672 5675 5677 5678 5679 5679 5678 5677 5675 5672 5669 5666 5662 5659 5654 5649 5642 5634 5627 5619 5611 5603 5594 5585 5577
5550 5558 5566 5576 5584 5592 5601 5609 5616 5623 5629 5636 5642 5646 5651 5655 5658 5662 5664 5667 5669 5670 5671 5671 5671 5669 5667 5664 5661 5658 5654 5650 5645 5639 5633 5626 5618 5609 5601 5593 5585 5576 5567
5543 5551 5560 5569 5577 5585 5593 5601 5608 5615 5622 5628 5633 5638 5643 5647 5651 5654 5657 5659 5661 5662 5663 5663 5663 5661 5659 5656 5654 5651 5647 5642 5636 5630 5623 5617 5609 5601 5592 5583 5575 5567 5558
5535 5544 5553 5561 5571 5579 5586 5594 5601 5608 5614 5620 5626 5630 5635 5639 5643 5646 5649 5652 5653 5655 5655 5655 5654 5653 5651 5649 5646 5643 5638 5634 5628 5622 5615 5608 5600 5592 5583 5575 5566 5558 5549
5528 5537 5546 5555 5563 5572 5579 5587 5594 5601 5607 5613 5618 5623 5628 5632 5635 5638 5642 5644 5646 5647 5647 5647 5646 5645 5643 5641 5638 5634 5630 5625 5619 5613 5607 5600 5592 5584 5576 5568 5559 5550 5541